Volver al catálogo

STARLINK-33546

ActivoComunicacionesVLEO
NORAD 62287·PAYLOAD·🇺🇸 United States

Lanzado Dec 8, 2024 desde Cape Canaveral Space Force Station

Loading…

Próximos Pases (próximas 24 horas)

TLE

ActualizadoSource: CelesTrak SupGP

Época: Sep 15, 2026, 02:26 UTC

1 62287C 24237W   26258.10187500 -.00010975  00000+0 -39729-3 0  2582
2 62287  42.9994 226.6909 0001276 265.6505 312.1127 15.27603431    13

Sigue STARLINK-33546 en tiempo real con AllMySat

Download on the App Store